FW6155 Weather Reports


Display with metric or nautical units.
time (UTC)temp
F
wind
direction
speed
MPH
gust
MPH
rain 1hr
in
rain 24hr
in
rain mn
in
humidity
%
barometer
mb
20260504234542 76 0.0 0.0 0.00 0.00 0.00 41 1010.3
20260504233045 76 0.0 0.0 0.00 0.00 0.00 41 1010.4
20260504231544 76 0.0 0.0 0.00 0.00 0.00 42 1010.3
20260504230043 77 0.0 0.0 0.00 0.00 0.00 40 1010.4
20260504224542 76 0.0 0.0 0.00 0.00 0.00 41 1010.9
20260504223047 76 0.0 0.0 0.00 0.00 0.00 40 1010.9
20260504221545 76 0.0 0.0 0.00 0.00 0.00 43 1011.0
20260504220110 76 0.0 0.0 0.00 0.00 0.00 43 1011.3
20260504214551 76 0.0 0.0 0.00 0.00 0.00 41 1011.4
20260504213047 76 0.0 0.0 0.00 0.00 0.00 42 1011.4
20260504211551 76 0.0 0.0 0.00 0.00 0.00 44 1011.4
20260504210045 76 0.0 0.0 0.00 0.00 0.00 46 1011.5
20260504204544 76 0.0 0.0 0.00 0.00 0.00 43 1011.6
20260504203043 76 0.0 0.0 0.00 0.00 0.00 43 1011.6
20260504201547 76 0.0 0.0 0.00 0.00 0.00 46 1011.6
20260504200050 76 0.0 0.0 0.00 0.00 0.00 49 1011.6
20260504194547 75 0.0 0.0 0.00 0.00 0.00 45 1011.6
20260504193043 75 0.0 0.0 0.00 0.00 0.00 47 1011.8
20260504191553 75 0.0 0.0 0.00 0.00 0.00 47 1011.8
20260504190057 74 0.0 0.0 0.00 0.00 0.00 49 1011.9
20260504184559 73 0.0 0.0 0.00 0.00 0.00 52 1011.9
20260504183050 72 0.0 0.0 0.00 0.00 0.00 53 1012.1
20260504181547 72 0.0 0.0 0.00 0.00 0.00 54 1012.1
20260504180052 71 0.0 0.0 0.00 0.00 0.00 57 1012.1
20260504174547 70 0.0 0.0 0.00 0.00 0.00 59 1012.2
20260504173047 69 0.0 0.0 0.00 0.00 0.00 60 1012.1
20260504171544 68 0.0 0.0 0.00 0.00 0.00 61 1012.0
20260504081553 61 0.0 0.0 0.00 0.00 0.00 67 1010.2
20260504044547 67 0.0 0.0 0.00 0.00 0.00 60 1010.3
20260504043044 68 0.0 0.0 0.00 0.00 0.00 59 1010.4
20260504041540 68 0.0 0.0 0.00 0.00 0.00 58 1010.3
20260504040053 69 0.0 0.0 0.00 0.00 0.00 57 1010.3
20260504034556 70 0.0 0.0 0.00 0.00 0.00 57 1010.1
20260504033112 70 0.0 0.0 0.00 0.00 0.00 55 1010.0
20260504031542 71 0.0 0.0 0.00 0.00 0.00 55 1010.0
20260504030045 72 0.0 0.0 0.00 0.00 0.00 53 1009.9
20260504024550 73 0.0 0.0 0.00 0.00 0.00 52 1010.0
20260504023059 73 0.0 0.0 0.00 0.00 0.00 50 1010.0
20260504021543 74 0.0 0.0 0.00 0.00 0.00 49 1010.0
20260504020043 75 0.0 0.0 0.00 0.00 0.00 48 1010.0
20260504014549 76 0.0 0.0 0.00 0.00 0.00 47 1010.0
20260504013046 76 0.0 0.0 0.00 0.00 0.00 46 1010.1
20260504011548 77 0.0 0.0 0.00 0.00 0.00 46 1010.2
20260504010052 78 0.0 0.0 0.00 0.00 0.00 46 1010.2
20260504004559 78 0.0 0.0 0.00 0.00 0.00 45 1010.4
20260504003043 79 0.0 0.0 0.00 0.00 0.00 45 1010.4
20260504001543 79 0.0 0.0 0.00 0.00 0.00 45 1010.6
20260504000042 79 0.0 0.0 0.00 0.00 0.00 46 1010.7